Location: Mannheim
(49.4880°N, 8.4650°E)
Time: 15:54:44
(UTC+02:00)

ISS - Pass Details

Date: 26 June 2024
Orbit: 409 x 423 km, 51.6° (Epoch: 22 July)

Event Time Altitude Azimuth Distance (km) Brightness Sun altitude
Exits shadow 04:31:50 - 220° (SW) 1,570 -1.6 -6.6°
Reaches altitude 10° 04:32:04 10° 219° (SW) 1,481 -1.7 -6.6°
Maximum altitude 04:35:11 38° 149° (SSE) 646 -2.9 -6.3°
Drops below altitude 10° 04:38:20 10° 79° (E) 1,499 0.0 -5.9°
Sets 04:40:31 0° 72° (ENE) 2,369 1.3 -5.7°
